Volver al catálogo

STARLINK-6074

ActivoComunicacionesVLEO
NORAD 56553·PAYLOAD·🇺🇸 United States

Lanzado May 14, 2023 desde Cape Canaveral Space Force Station

Loading…

Próximos Pases (próximas 24 horas)

TLE

ActualizadoSource: CelesTrak SupGP

Época: Sep 15, 2026, 02:18 UTC

1 56553C 23065BC  26258.09631944 -.00022654  00000+0 -82063-3 0  2589
2 56553  43.0015 233.7315 0000807 272.8221  11.3639 15.27586260    18

Sigue STARLINK-6074 en tiempo real con AllMySat

Download on the App Store